Back to catalog

LEMUR 2 HUBBLE-4

AliveScienceSSO
NORAD 64565·PAYLOAD·🇺🇸 United States

Launched Jun 23, 2025 from Vandenberg Space Force Base

Loading…

Next Passes (next 24 hours)

TLE

FreshSource: Space-Track

Epoch: Sep 14, 2026, 02:25 UTC

1 64565U 25135AP  26257.10131658  .00000855  00000-0  86127-4 0  9995
2 64565  97.7766  10.0153 0002603  27.0810 333.0545 14.93732954 67147

Track LEMUR 2 HUBBLE-4 in real time with AllMySat

Download on the App Store